Current weather by "City, St" or "zip code"  
 

Current Conditions: Philadelphia, Northeast Philadelphia Airport, PA

Fair


74.0 F

Last Updated on Oct 21 2021, 12:54 pm EDT
Humidity: 45%
Wind Speed: SW 12.7 G 18.4 mph
Barometer 30.00 in
Dewpoint: 51.1 F
Visibility: 10.00 mi
Precip: --
Heat Index: NA
Wind Chill: NA
Current conditions at:

Philadelphia, Northeast Philadelphia Airport, PA (KPNE)

Lat: 40.07889 Lon: 75.01361

Local Radar Image active severe weather and emergency alerts image image weather storm and storm spotter reports image weather observation monitoring service image
Local
Radar
Active
Alerts
Storm Reports Obs
Monitoring

Sign-up For Email & Text Message Weather Alert Notification Services



Advertise Here

Observation History for Philadelphia, Northeast Philadelphia Airport, PA


Time Wind
(mph)
Vis
(mi)
Weather Precip (in) Temperature (F) Relative
Humidity
Wind
Chill
(F)
Heat
Index
(F)
Pressure
Air Dwpt altimeter
(in)
sea level
(mb)
Rmks
12:54 pm EDT SW 12.7 G 18.4 10.00 Fair -- 74.0 51.1 45% NA NA 30.00 1016.0
11:54 am EDT S 6.9 10.00 Fair -- 72.0 50.0 46% NA NA 30.03 1016.7
10:54 am EDT SW 3.5 10.00 Fair -- 71.0 52.0 51% NA NA 30.05 1017.4
9:54 am EDT W 3.5 10.00 Fair -- 66.0 53.1 63% NA NA 30.06 1017.8
8:54 am EDT N 0.0 10.00 Fair -- 59.0 53.1 81% NA NA 30.07 1018.2
7:54 am EDT N 0.0 10.00 Fair -- 54.0 50.0 87% NA NA 30.07 1018.1
6:54 am EDT N 0.0 10.00 Fair -- 53.0 50.0 89% NA NA 30.07 1018.2
5:54 am EDT N 0.0 10.00 Fair -- 53.0 48.9 86% NA NA 30.06 1018.0
4:54 am EDT N 0.0 10.00 Fair -- 53.0 48.9 86% NA NA 30.07 1018.1
3:54 am EDT N 0.0 10.00 Fair -- 53.0 48.0 83% NA NA 30.06 1018.0
2:54 am EDT SW 3.5 10.00 Fair -- 54.0 48.9 83% NA NA 30.07 1018.3
1:54 am EDT W 3.5 10.00 Fair -- 54.0 48.9 83% NA NA 30.07 1018.1
12:54 am EDT N 0.0 10.00 Fair -- 55.0 50.0 83% NA NA 30.07 1018.0
11:54 pm EDT N 0.0 10.00 Fair -- 60.0 48.9 67% NA NA 30.06 1018.0
10:54 pm EDT SW 3.5 10.00 Fair -- 62.0 48.9 62% NA NA 30.07 1018.2
9:54 pm EDT W 5.8 10.00 Fair -- 63.0 48.9 60% 63 NA 30.07 1018.1
8:54 pm EDT W 3.5 10.00 Fair -- 65.0 50.0 59% NA NA 30.07 1018.2
7:54 pm EDT SW 6.9 10.00 Fair -- 66.0 50.0 56% NA NA 30.06 1017.9
6:54 pm EDT W 5.8 10.00 Fair -- 68.0 50.0 53% NA NA 30.06 1017.8
5:54 pm EDT W 9.2 10.00 Fair -- 71.0 51.1 49% NA NA 30.04 1017.1
4:54 pm EDT W 12.7 10.00 Fair -- 75.0 50.0 42% NA NA 30.04 1017.1
3:54 pm EDT W 12.7 10.00 Fair -- 76.0 51.1 42% NA NA 30.04 1017.2
2:54 pm EDT NW 10.4 10.00 Fair -- 76.0 51.1 42% NA NA 30.04 1017.1
1:54 pm EDT NW 9.2 10.00 Fair -- 75.0 52.0 45% NA NA 30.05 1017.5

Regional Weather Observation


Philadelphia - Wings Field Airport, PA (KLOM)

Fair
74.0 F

Doylestown, Doylestown Airport, PA (KDYL)

Fair
75.0 F

Pennridge Airport, PA (KCKZ)

Fair
72.0 F

Quakertown Airport, PA (KUKT)

Fair
73.0 F

Pottstown, Pottstown Limerick Airport, PA (KPTW)

Fair with Haze
71.0 F

Allentown Queen City Municipal Airport, PA (KXLL)

Fair
72.0 F

Advertise Here


Advertise Here